Miscellaneous Local Product
Issued by NWS Hastings, NE

Home | Current Version | Previous Version | Text Only | Print | Product List | Glossary On
Versions: 1 2 3 4 5 6 7 8 9 10 11 12 13 14 15 16 17 18 19 20 21 22 23 24 25 26 27 28 29 30 31 32 33 34 35 36 37 38 39 40 41 42 43 44 45 46 47 48 49 50
140
AXUS43 KGID 250502
MISGRI

GID CWA HOURLY WEATHER ROUNDUP
NATIONAL WEATHER SERVICE HASTINGS NE
1200 AM CDT SAT MAR 25 2017

NOTE: "FAIR" INDICATES FEW OR NO CLOUDS BELOW 12,000 FEET WITH NO
SIGNIFICANT WEATHER AND/OR OBSTRUCTIONS TO VISIBILITY.

...SOUTH CENTRAL NEBRASKA...

CITY           SKY/WX    TMP DP  RH WIND       PRES   REMARKS
GRAND ISLAND   CLOUDY    39  39 100 N17       30.04F WCI  30
HASTINGS       CLOUDY    40  38  93 N16       30.02F WCI  31
KEARNEY        CLOUDY    41  36  81 N12       30.04F
ORD            CLOUDY    41  37  86 NE10      30.06S
YORK           CLOUDY    41  39  93 NE17      30.00F
AURORA         CLOUDY    40  38  95 N16       30.01F WCI  31
LEXINGTON      CLOUDY    42  38  84 NE14      30.04F
HOLDREGE       CLOUDY    41  38  92 N18       30.02F
HEBRON         CLOUDY    41  39  91 N10G17    29.96F

...NEBRASKA PANHANDLE...

CITY           SKY/WX    TMP DP  RH WIND       PRES   REMARKS
CHADRON        CLEAR     43  29  57 S13       30.08F
ALLIANCE       CLEAR     32  27  81 E6        30.10F WCI  26
SCOTTSBLUFF    CLEAR     35  27  72 E5        30.11S WCI  31
SIDNEY         CLEAR     25  21  85 SW5       30.13S WCI  19

...WESTERN AND NORTH CENTRAL NEBRASKA...

CITY           SKY/WX    TMP DP  RH WIND       PRES   REMARKS
VALENTINE      CLEAR     31  26  82 NW3       30.12F
AINSWORTH      CLEAR     34  31  91 N5        30.11S WCI  29
ONEILL         CLOUDY    39  37  92 N9        30.09F WCI  33
BROKEN BOW     CLOUDY    42  38  85 N10       30.05F
IMPERIAL       PTCLDY    39  34  82 N10       30.09F WCI  32
NORTH PLATTE   CLOUDY    41  34  76 N9        30.08S
MCCOOK         CLOUDY    42  41  96 NE5       30.06S

...EASTERN NEBRASKA...

CITY           SKY/WX    TMP DP  RH WIND       PRES   REMARKS
NORFOLK        CLOUDY    38  36  92 NE14      30.05F FOG     WCI  30
SO SIOUX CITY  LGT RAIN  40  39  97 NE14      30.06F WCI  32
TEKAMAH        CLOUDY    42  39  89 N15       30.03F
COLUMBUS       CLOUDY    41  37  87 N15       30.05S
ALBION         CLOUDY    40  38  90 N9G16     30.06F FOG     WCI  35
OMAHA EPPLEY   LGT RAIN  42  37  82 N15       29.99F
OFFUTT AFB     CLOUDY    42  39  90 N13       29.97F
MILLARD        LGT RAIN  43  42  94 NE8       29.99F
LINCOLN        LGT RAIN  42  40  92 N15       29.99F
NEBRASKA CITY  LGT RAIN  41  41 100 N21G26    29.91F
BEATRICE       RAIN      42  40  93 N14G23    29.93F
FALLS CITY     LGT RAIN  45  44  97 N15       29.89F

...NORTHERN KANSAS...

CITY           SKY/WX    TMP DP  RH WIND       PRES   REMARKS
GOODLAND       CLOUDY    40  36  86 NW14      30.07S WCI  32
HILL CITY      CLOUDY    42  39  89 N15G25    30.03F
NORTON         CLOUDY    41  36  81 N14G23    30.02F
PHILLIPSBURG   CLOUDY    43  39  87 N18G24    30.01F
HAYS             N/A     42  38  85 N20       29.99S
RUSSELL        LGT RAIN  41  39  93 N15       29.96S FOG
CONCORDIA      CLOUDY    42  40  92 N12G26    29.94F
SALINA         LGT RAIN  45  42  89 N23       29.92S
TOPEKA         CLOUDY    52  51  97 N13G22    29.81R



USA.gov is the U.S. government's official web portal to all federal, state and local government web resources and services.